Weather History for Hot Springs, AR

Change the Weather History Date:

Wednesday, January 15, 2014

  Actual Average Record
Temperature  
Mean Temperature 36 °F -  
Max Temperature 45 °F 51 °F 72 °F (1950)
Min Temperature 26 °F 29 °F 10 °F (1979)
Degree Days  
Heating Degree Days 30    
Moisture  
Dew Point 15 °F    
Average Humidity 45    
Maximum Humidity 75    
Minimum Humidity 25    
Precipitation  
Precipitation 0.00 in - - ()
Sea Level Pressure  
Sea Level Pressure 30.22 in    
Wind  
Wind Speed 3 mph (NW)    
Max Wind Speed 14 mph    
Max Gust Speed 25 mph    
Visibility 10 miles    
Events      
Averages and records for this station are not official NWS values.
T = Trace of Precipitation, MM = Missing Value Source: NWS Daily Summary

Daily Weather History Graph

Daily Weather History Graph

Search for Another Location

Airport:

Trip Planner

Search our weather history database for the weather conditions in past years. The results will help you decide how hot, cold, wet, or windy it might be!

Date:

Astronomy

Jan. 15, 2014 Rise Set
Actual Time 7:18 AM CST 5:25 PM CST
Civil Twilight 6:51 AM CST 5:52 PM CST
Nautical Twilight 6:20 AM CST 6:23 PM CST
Astronomical Twilight 5:50 AM CST 6:53 PM CST
Moon 5:20 PM CST (1/15) 6:37 AM CST (1/15)
Length of Visible Light 11h 01m
Length of Day
10h 06m
Full, 100% of the Moon is Illuminated
Jan 15
Full
Jan 15
Full
Jan 23
Last Quarter
Jan 30
New
Feb 6
First Quarter

Hourly Weather History & Observations

Time (CST) Temp. Windchill Dew Point Humidity Pressure Visibility Wind Dir Wind Speed Gust Speed Precip Events Conditions
12:53 AM 39.0 °F - 17.1 °F 41% 30.21 in 10.0 mi Calm Calm - N/A   Clear
1:53 AM 37.9 °F - 19.0 °F 47% 30.23 in 10.0 mi Calm Calm - N/A   Clear
2:53 AM 32.0 °F - 19.9 °F 61% 30.23 in 10.0 mi Calm Calm - N/A   Clear
3:53 AM 30.9 °F - 21.0 °F 67% 30.23 in 10.0 mi Calm Calm - N/A   Clear
4:53 AM 28.9 °F - 21.0 °F 72% 30.22 in 10.0 mi Calm Calm - N/A   Clear
5:53 AM 30.9 °F 27.5 °F 18.0 °F 59% 30.23 in 10.0 mi NW 3.5 mph - N/A   Clear
6:53 AM 32.0 °F 28.7 °F 17.1 °F 54% 30.25 in 10.0 mi WNW 3.5 mph - N/A   Clear
7:53 AM 35.1 °F 31.0 °F 16.0 °F 46% 30.27 in 10.0 mi WNW 4.6 mph - N/A   Clear
8:53 AM 37.9 °F 32.1 °F 12.0 °F 35% 30.30 in 10.0 mi NW 8.1 mph 17.3 mph N/A   Clear
9:53 AM 39.9 °F 33.4 °F 10.9 °F 31% 30.30 in 10.0 mi NW 10.4 mph 18.4 mph N/A   Clear
10:53 AM 42.1 °F 36.6 °F 10.9 °F 28% 30.29 in 10.0 mi NW 9.2 mph 25.3 mph N/A   Clear
11:53 AM 42.1 °F 36.1 °F 10.0 °F 27% 30.27 in 10.0 mi NW 10.4 mph 20.7 mph N/A   Clear
12:53 PM 44.1 °F 38.6 °F 10.9 °F 26% 30.23 in 10.0 mi NNW 10.4 mph 23.0 mph N/A   Clear
1:53 PM 44.1 °F 37.4 °F 10.9 °F 26% 30.21 in 10.0 mi NW 13.8 mph 21.9 mph N/A   Clear
2:53 PM 45.0 °F 40.6 °F 12.0 °F 26% 30.19 in 10.0 mi NW 8.1 mph 18.4 mph N/A   Clear
3:53 PM 45.0 °F 40.6 °F 10.9 °F 25% 30.21 in 10.0 mi NNW 8.1 mph - N/A   Clear
4:53 PM 43.0 °F 40.3 °F 12.9 °F 30% 30.20 in 10.0 mi NW 4.6 mph - N/A   Clear
5:53 PM 41.0 °F - 14.0 °F 33% 30.19 in 10.0 mi Calm Calm - N/A   Clear
6:53 PM 35.1 °F 32.2 °F 16.0 °F 46% 30.19 in 10.0 mi ENE 3.5 mph - N/A   Clear
7:53 PM 32.0 °F - 17.1 °F 54% 30.18 in 10.0 mi Calm Calm - N/A   Clear
8:53 PM 32.0 °F - 18.0 °F 56% 30.17 in 10.0 mi Calm Calm - N/A   Clear
9:53 PM 30.9 °F - 19.0 °F 61% 30.15 in 10.0 mi Calm Calm - N/A   Partly Cloudy
10:53 PM 26.1 °F 21.9 °F 19.0 °F 75% 30.13 in 10.0 mi ENE 3.5 mph - N/A   Clear
11:53 PM 28.9 °F - 18.0 °F 64% 30.11 in 10.0 mi Calm Calm - N/A   Clear